When you browse on this site, cookies collect data to enhance your experience and personalize the content and advertising you see.
Visit our Privacy Policy to learn more. By continuing to use the site, you agree to this use of cookies and data.
  • In Portugal
  • List of Countries
  • For 7 days
  • Water Temperature
  • Weather Map
  • Weather Widgets
  • user-avatar
    Login

    Hourly Weather Namibe

    Today, 15 October, Tuesday

    Time Temperature Precipitation Wind Pressure Humidity
    00:00 +25°C° 0 mm 2 mps 759 mmHg 72%
    01:00 +25°C° 0 mm 2 mps 759 mmHg 79%
    02:00 +25°C° 0.5 mm 2 mps 758 mmHg 78%
    03:00 +26°C° 0.5 mm 3 mps 758 mmHg 78%
    04:00 +26°C° 0.5 mm 3 mps 757 mmHg 77%
    05:00 +27°C° 0.3 mm 3 mps 758 mmHg 75%
    06:00 +27°C° 0.3 mm 3 mps 758 mmHg 74%
    07:00 +28°C° 0 mm 3 mps 758 mmHg 71%
    08:00 +29°C° 0.1 mm 3 mps 758 mmHg 66%
    09:00 +30°C° 0.1 mm 3 mps 757 mmHg 61%
    10:00 +32°C° 0.1 mm 2 mps 757 mmHg 57%
    11:00 +33°C° 0 mm 3 mps 757 mmHg 55%
    12:00 +34°C° 0 mm 4 mps 756 mmHg 52%
    13:00 +35°C° 0 mm 5 mps 756 mmHg 50%
    14:00 +33°C° 0 mm 5 mps 755 mmHg 53%
    15:00 +32°C° 0 mm 5 mps 755 mmHg 56%
    16:00 +29°C° 0 mm 5 mps 754 mmHg 58%
    17:00 +28°C° 0 mm 4 mps 755 mmHg 61%
    18:00 +28°C° 0 mm 3 mps 756 mmHg 64%
    19:00 +27°C° 0 mm 1 mps 757 mmHg 67%
    20:00 +26°C° 0.3 mm 2 mps 758 mmHg 68%
    21:00 +26°C° 0.3 mm 2 mps 758 mmHg 70%
    22:00 +26°C° 0.3 mm 3 mps 758 mmHg 72%
    23:00 +25°C° 0 mm 3 mps 758 mmHg 74%

    Tomorrow, 16 October, Wednesday

    Time Temperature Precipitation Wind Pressure Humidity
    00:00 +25°C° 0 mm 3 mps 758 mmHg 77%
    01:00 +25°C° 0 mm 3 mps 757 mmHg 79%
    02:00 +25°C° 0 mm 3 mps 758 mmHg 80%
    03:00 +25°C° 0 mm 3 mps 758 mmHg 81%
    04:00 +25°C° 0 mm 2 mps 758 mmHg 82%
    05:00 +25°C° 0.2 mm 2 mps 758 mmHg 81%
    06:00 +25°C° 0.2 mm 1 mps 758 mmHg 79%
    07:00 +26°C° 0.2 mm 1 mps 759 mmHg 78%
    08:00 +27°C° 0 mm 1 mps 758 mmHg 72%
    09:00 +29°C° 0 mm 2 mps 758 mmHg 65%
    10:00 +31°C° 0 mm 2 mps 757 mmHg 59%
    11:00 +31°C° 0 mm 3 mps 757 mmHg 57%
    12:00 +33°C° 0 mm 3 mps 757 mmHg 55%
    13:00 +33°C° 0 mm 3 mps 756 mmHg 53%
    14:00 +33°C° 0 mm 4 mps 756 mmHg 53%
    15:00 +32°C° 0 mm 5 mps 755 mmHg 54%
    16:00 +32°C° 0 mm 5 mps 755 mmHg 55%
    17:00 +30°C° 0.1 mm 5 mps 755 mmHg 60%
    18:00 +28°C° 0.1 mm 5 mps 756 mmHg 64%
    19:00 +27°C° 0.1 mm 5 mps 756 mmHg 68%
    20:00 +27°C° 0.1 mm 5 mps 757 mmHg 67%
    21:00 +27°C° 0.1 mm 4 mps 757 mmHg 65%
    22:00 +27°C° 0.1 mm 4 mps 757 mmHg 64%
    23:00 +27°C° 0.2 mm 3 mps 757 mmHg 65%

    Day after tomorrow, 17 October, Thursday

    Time Temperature Precipitation Wind Pressure Humidity
    00:00 +27°C° 0.2 mm 3 mps 757 mmHg 65%
    01:00 +26°C° 0.2 mm 2 mps 757 mmHg 66%
    02:00 +26°C° 0.1 mm 2 mps 757 mmHg 68%
    03:00 +25°C° 0.1 mm 2 mps 756 mmHg 70%
    04:00 +24°C° 0.1 mm 2 mps 756 mmHg 72%
    05:00 +24°C° 0.1 mm 2 mps 757 mmHg 72%
    06:00 +25°C° 0.1 mm 2 mps 757 mmHg 72%
    07:00 +25°C° 0.1 mm 2 mps 758 mmHg 72%
    08:00 +26°C° 0 mm 3 mps 758 mmHg 68%
    09:00 +27°C° 0 mm 3 mps 758 mmHg 64%
    10:00 +28°C° 0 mm 4 mps 757 mmHg 60%
    11:00 +28°C° 0 mm 4 mps 757 mmHg 58%
    12:00 +29°C° 0 mm 4 mps 756 mmHg 57%
    13:00 +29°C° 0 mm 4 mps 756 mmHg 56%
    14:00 +29°C° 0 mm 5 mps 755 mmHg 58%
    15:00 +28°C° 0 mm 5 mps 755 mmHg 60%
    16:00 +27°C° 0 mm 5 mps 754 mmHg 62%
    17:00 +27°C° 0 mm 5 mps 755 mmHg 66%
    18:00 +26°C° 0 mm 4 mps 756 mmHg 70%
    19:00 +25°C° 0 mm 3 mps 757 mmHg 73%
    20:00 +25°C° 0 mm 2 mps 758 mmHg 73%
    21:00 +25°C° 0 mm 2 mps 758 mmHg 73%
    22:00 +25°C° 0 mm 1 mps 759 mmHg 74%
    23:00 +25°C° 0 mm 1 mps 759 mmHg 75%

    18 October, Friday

    Time Temperature Precipitation Wind Pressure Humidity
    00:00 +24°C° 0 mm 2 mps 759 mmHg 77%
    01:00 +24°C° 0 mm 3 mps 759 mmHg 78%
    02:00 +24°C° 0 mm 2 mps 758 mmHg 80%
    03:00 +24°C° 0 mm 2 mps 758 mmHg 82%
    04:00 +24°C° 0 mm 2 mps 758 mmHg 84%
    05:00 +24°C° 0 mm 2 mps 758 mmHg 84%
    06:00 +24°C° 0 mm 1 mps 758 mmHg 83%
    07:00 +24°C° 0 mm 1 mps 758 mmHg 82%
    08:00 +26°C° 0 mm 2 mps 758 mmHg 76%
    09:00 +27°C° 0 mm 3 mps 758 mmHg 70%
    10:00 +28°C° 0 mm 4 mps 758 mmHg 63%
    11:00 +28°C° 0 mm 4 mps 757 mmHg 61%
    12:00 +29°C° 0 mm 5 mps 757 mmHg 60%
    13:00 +29°C° 0 mm 5 mps 756 mmHg 58%
    14:00 +29°C° 0 mm 5 mps 756 mmHg 59%
    15:00 +28°C° 0 mm 4 mps 756 mmHg 59%
    16:00 +28°C° 0 mm 4 mps 755 mmHg 60%
    17:00 +27°C° 0 mm 3 mps 756 mmHg 64%
    18:00 +26°C° 0 mm 3 mps 756 mmHg 68%
    19:00 +25°C° 0 mm 3 mps 757 mmHg 72%
    20:00 +25°C° 0 mm 2 mps 757 mmHg 72%
    21:00 +25°C° 0 mm 1 mps 758 mmHg 72%
    22:00 +25°C° 0 mm 1 mps 759 mmHg 72%
    23:00 +24°C° 0 mm 1 mps 758 mmHg 73%

    19 October, Saturday

    Time Temperature Precipitation Wind Pressure Humidity
    00:00 +24°C° 0 mm 1 mps 758 mmHg 74%
    01:00 +24°C° 0 mm 1 mps 758 mmHg 75%
    02:00 +24°C° 0 mm 1 mps 758 mmHg 76%
    03:00 +23°C° 0 mm 1 mps 757 mmHg 77%
    04:00 +21°C° 0 mm 0 mps 757 mmHg 78%
    05:00 +21°C° 0 mm 0 mps 757 mmHg 77%
    06:00 +21°C° 0 mm 0 mps 758 mmHg 77%
    07:00 +22°C° 0 mm 0 mps 758 mmHg 76%
    08:00 +25°C° 0 mm 1 mps 758 mmHg 68%
    09:00 +27°C° 0 mm 2 mps 758 mmHg 61%
    10:00 +28°C° 0 mm 2 mps 758 mmHg 53%
    11:00 +29°C° 0 mm 3 mps 757 mmHg 52%
    12:00 +29°C° 0 mm 3 mps 756 mmHg 51%
    13:00 +29°C° 0 mm 4 mps 756 mmHg 50%
    14:00 +29°C° 0 mm 4 mps 755 mmHg 51%
    15:00 +28°C° 0 mm 4 mps 755 mmHg 53%
    16:00 +28°C° 0 mm 4 mps 754 mmHg 55%
    17:00 +27°C° 0 mm 4 mps 755 mmHg 59%
    18:00 +26°C° 0 mm 3 mps 756 mmHg 64%
    19:00 +25°C° 0 mm 3 mps 756 mmHg 69%
    20:00 +25°C° 0 mm 3 mps 757 mmHg 70%
    21:00 +24°C° 0 mm 3 mps 757 mmHg 70%
    22:00 +24°C° 0 mm 3 mps 758 mmHg 71%
    23:00 +24°C° 0 mm 3 mps 757 mmHg 71%

    20 October, Sunday

    Time Temperature Precipitation Wind Pressure Humidity
    00:00 +24°C° 0 mm 2 mps 757 mmHg 71%
    01:00 +24°C° 0 mm 1 mps 757 mmHg 70%
    02:00 +24°C° 0 mm 1 mps 757 mmHg 72%
    03:00 +23°C° 0 mm 1 mps 757 mmHg 75%
    04:00 +23°C° 0 mm 1 mps 757 mmHg 77%
    05:00 +23°C° 0 mm 1 mps 757 mmHg 76%
    06:00 +23°C° 0 mm 1 mps 757 mmHg 76%
    07:00 +23°C° 0 mm 1 mps 757 mmHg 75%
    08:00 +25°C° 0 mm 1 mps 757 mmHg 69%
    09:00 +26°C° 0 mm 2 mps 757 mmHg 64%
    10:00 +28°C° 0 mm 3 mps 757 mmHg 58%
    11:00 +28°C° 0 mm 3 mps 757 mmHg 58%
    12:00 +28°C° 0 mm 4 mps 756 mmHg 58%
    13:00 +28°C° 0 mm 4 mps 756 mmHg 57%
    14:00 +28°C° 0 mm 4 mps 755 mmHg 59%
    15:00 +27°C° 0 mm 4 mps 755 mmHg 61%
    16:00 +27°C° 0 mm 4 mps 755 mmHg 63%
    17:00 +26°C° 0 mm 3 mps 755 mmHg 66%
    18:00 +25°C° 0 mm 3 mps 756 mmHg 69%
    19:00 +24°C° 0 mm 2 mps 756 mmHg 72%
    20:00 +24°C° 0 mm 2 mps 757 mmHg 72%
    21:00 +24°C° 0 mm 1 mps 757 mmHg 72%
    22:00 +24°C° 0 mm 1 mps 758 mmHg 72%
    23:00 +24°C° 0 mm 1 mps 758 mmHg 73%
    Show more